Weather in Sotnitsyno

Russia / Ryazan Oblast     54°16′29″N   41°47′54″E
temp.,
°C
wind,
m/s
gust,
m/s
humid.,
%
clouds,
%
prec.,
mm/h
press.,
hPa
HPBL,
m
27 february, sat
sat2700:00+2w7159386 0.1 1001696
03:00+1w7149393 0.1 1001770
06:00+1w81497100 0.1 999766
09:00−2nw101495100 0.7 1000681
12:00−8nnw71188100 0.4 1003750
15:00−8nnw71189100 0.4 1007753
18:00−9nnw5992100 0.2 1009510
21:00−11nnw379599 0.2 1012148
28 february, sun
sun2800:00−12nw369699 0.1 1012114
03:00−14nw359672 0.1 101482
06:00−13nw349660 0.0 101488
09:00−11nnw359472 0.1 1015254
12:00−9nnw248892 0.1 1015462
15:00−7nnw348996 0.1 1015570
18:00−8n2294100 0.1 101640
21:00−10nne2296100 0.1 101945
1 march, mon
mon100:00−13ne2296100 0.1 102120
03:00−14nnw229688 0.1 102320
06:00−15nnw129716 0.0 102420
09:00−13nw119640 0.0 102538
12:00−8w239179 0.0 1025289
15:00−5wsw359288 0.0 1024361
18:00−5wsw599394 0.0 1022396
21:00−3wsw5119397 0.1 1020534
2 march, tue
tue200:00−2wsw61294100 0.1 1016508
03:00−1wsw71494100 0.6 1013600
06:000w81496100 0.3 1008820
09:000wnw81498100 1.0 1006794
12:000nw71295100 0.6 1006889
15:00+1nw7128898 0.8 1007991
18:00−1nw6138794 0.1 1008753
21:00−2nw6139496 0.3 1009628
3 march, wed
wed300:00−3nw5129495 0.1 1009466
03:00−4nw6139294 0.1 1010569
06:00−6nw6149270 0.0 1010460
09:00−5nw7139082 0.1 1012918
12:00−3nnw81381100 0.1 10141109
15:00−3nnw7118282 0.1 10151013
18:00−5nw5128875 0.1 1016435
21:00−7nw498943 0.1 1018189